Time,TemperatureF,DewpointF,PressureIn,WindDirection,WindDirectionDegrees,WindSpeedMPH,WindSpeedGustMPH,Humidity,HourlyPrecipIn,Conditions,Clouds,dailyrainin,SoftwareType,DateUTC
2015-09-02 00:04:00,62.4,57.2,29.92,SSW,203,6.0,6.0,83,0.00,,,0.00,Wunderground v.1.15,2015-09-02 07:04:00,
2015-09-02 00:09:00,62.4,57.2,29.92,South,184,5.0,6.0,83,0.00,,,0.00,Wunderground v.1.15,2015-09-02 07:09:00,
2015-09-02 00:14:00,62.4,57.2,29.92,SW,224,5.0,5.0,83,0.00,,,0.00,Wunderground v.1.15,2015-09-02 07:14:00,
2015-09-02 00:19:00,62.3,57.1,29.92,SSW,196,6.0,6.0,83,0.00,,,0.00,Wunderground v.1.15,2015-09-02 07:19:00,
2015-09-02 00:24:00,62.2,57.0,29.92,South,180,5.0,6.0,83,0.00,,,0.00,Wunderground v.1.15,2015-09-02 07:24:00,
2015-09-02 00:34:00,62.1,56.9,29.92,SSW,196,5.0,5.0,83,0.00,,,0.00,Wunderground v.1.15,2015-09-02 07:34:00,
2015-09-02 00:44:00,62.0,57.1,29.92,SSW,205,5.0,6.0,84,0.00,,,0.00,Wunderground v.1.15,2015-09-02 07:44:00,
2015-09-02 00:49:00,62.1,57.2,29.92,SW,230,5.0,6.0,84,0.00,,,0.00,Wunderground v.1.15,2015-09-02 07:49:00,
2015-09-02 00:59:00,62.1,57.2,29.92,SSW,200,5.0,8.0,84,0.00,,,0.00,Wunderground v.1.15,2015-09-02 07:59:00,
2015-09-02 01:04:00,62.1,57.2,29.92,SSW,211,5.0,5.0,84,0.00,,,0.00,Wunderground v.1.15,2015-09-02 08:04:00,
2015-09-02 01:09:00,62.1,57.2,29.93,SSW,204,6.0,7.0,84,0.00,,,0.00,Wunderground v.1.15,2015-09-02 08:09:00,
2015-09-02 01:14:00,62.1,57.2,29.93,SSW,199,5.0,5.0,84,0.00,,,0.00,Wunderground v.1.15,2015-09-02 08:14:00,
2015-09-02 01:24:00,62.3,57.4,29.93,SSW,206,5.0,5.0,84,0.00,,,0.00,Wunderground v.1.15,2015-09-02 08:24:00,
2015-09-02 01:29:00,62.3,57.4,29.93,South,187,5.0,5.0,84,0.00,,,0.00,Wunderground v.1.15,2015-09-02 08:29:00,
2015-09-02 01:34:00,62.3,57.1,29.93,SSW,210,5.0,5.0,83,0.00,,,0.00,Wunderground v.1.15,2015-09-02 08:34:00,
2015-09-02 01:39:00,62.3,57.1,29.93,SSW,204,5.0,6.0,83,0.00,,,0.00,Wunderground v.1.15,2015-09-02 08:39:00,
2015-09-02 01:44:00,62.3,57.1,29.93,SSW,205,5.0,5.0,83,0.00,,,0.00,Wunderground v.1.15,2015-09-02 08:44:00,
2015-09-02 01:49:00,62.2,57.0,29.93,South,181,5.0,5.0,83,0.00,,,0.00,Wunderground v.1.15,2015-09-02 08:49:00,
2015-09-02 01:59:00,62.3,57.1,29.93,South,174,6.0,9.0,83,0.00,,,0.00,Wunderground v.1.15,2015-09-02 08:59:00,
2015-09-02 02:04:00,62.3,57.1,29.93,SSW,199,6.0,6.0,83,0.00,,,0.00,Wunderground v.1.15,2015-09-02 09:04:00,
2015-09-02 02:09:00,62.2,57.0,29.93,SW,220,6.0,6.0,83,0.00,,,0.00,Wunderground v.1.15,2015-09-02 09:09:00,
2015-09-02 02:14:00,62.1,56.9,29.92,SSW,203,6.0,6.0,83,0.00,,,0.00,Wunderground v.1.15,2015-09-02 09:14:00,
2015-09-02 02:19:00,62.0,56.8,29.92,SSW,198,6.0,6.0,83,0.00,,,0.00,Wunderground v.1.15,2015-09-02 09:19:00,
2015-09-02 02:24:00,61.9,57.0,29.92,SSW,210,6.0,7.0,84,0.00,,,0.00,Wunderground v.1.15,2015-09-02 09:24:00,
2015-09-02 02:34:00,62.0,57.1,29.92,SW,215,5.0,5.0,84,0.00,,,0.00,Wunderground v.1.15,2015-09-02 09:34:00,
2015-09-02 02:39:00,62.0,57.1,29.92,SSW,200,5.0,5.0,84,0.00,,,0.00,Wunderground v.1.15,2015-09-02 09:39:00,
2015-09-02 02:44:00,62.0,57.1,29.92,South,187,6.0,6.0,84,0.00,,,0.00,Wunderground v.1.15,2015-09-02 09:44:00,
2015-09-02 02:49:00,62.0,57.1,29.92,SSW,193,6.0,10.0,84,0.00,,,0.00,Wunderground v.1.15,2015-09-02 09:49:00,
2015-09-02 02:54:00,62.1,57.2,29.92,SSW,200,6.0,8.0,84,0.00,,,0.00,Wunderground v.1.15,2015-09-02 09:54:00,
2015-09-02 02:59:00,62.0,57.4,29.92,SSW,197,6.0,8.0,85,0.00,,,0.00,Wunderground v.1.15,2015-09-02 09:59:00,
2015-09-02 03:09:00,62.0,57.4,29.92,SSW,193,6.0,6.0,85,0.00,,,0.00,Wunderground v.1.15,2015-09-02 10:09:00,
2015-09-02 03:14:00,61.9,57.3,29.92,SSW,193,6.0,6.0,85,0.00,,,0.00,Wunderground v.1.15,2015-09-02 10:14:00,
2015-09-02 03:19:00,61.8,57.2,29.92,South,185,6.0,6.0,85,0.00,,,0.00,Wunderground v.1.15,2015-09-02 10:19:00,
2015-09-02 03:24:00,61.8,57.2,29.92,SSW,204,6.0,7.0,85,0.00,,,0.00,Wunderground v.1.15,2015-09-02 10:24:00,
2015-09-02 03:29:00,61.7,57.1,29.92,SSW,202,6.0,10.0,85,0.00,,,0.00,Wunderground v.1.15,2015-09-02 10:29:00,
2015-09-02 03:34:00,61.7,57.1,29.92,SSE,168,7.0,7.0,85,0.00,,,0.00,Wunderground v.1.15,2015-09-02 10:34:00,
2015-09-02 03:44:00,61.6,57.0,29.92,South,190,5.0,5.0,85,0.00,,,0.00,Wunderground v.1.15,2015-09-02 10:44:00,
2015-09-02 03:49:00,61.5,56.9,29.92,SSW,203,5.0,6.0,85,0.00,,,0.00,Wunderground v.1.15,2015-09-02 10:49:00,
2015-09-02 03:54:00,61.4,56.5,29.92,SSW,196,5.0,9.0,84,0.00,,,0.00,Wunderground v.1.15,2015-09-02 10:54:00,
2015-09-02 03:59:00,61.3,56.8,29.93,South,183,6.0,9.0,85,0.00,,,0.00,Wunderground v.1.15,2015-09-02 10:59:00,
2015-09-02 04:04:00,61.3,57.1,29.92,SSW,207,6.0,9.0,86,0.00,,,0.00,Wunderground v.1.15,2015-09-02 11:04:00,
2015-09-02 04:09:00,61.3,57.1,29.93,South,186,6.0,9.0,86,0.00,,,0.00,Wunderground v.1.15,2015-09-02 11:09:00,
2015-09-02 04:19:00,61.1,56.6,29.93,South,190,6.0,6.0,85,0.00,,,0.00,Wunderground v.1.15,2015-09-02 11:19:00,
2015-09-02 04:24:00,61.1,56.6,29.92,South,191,5.0,5.0,85,0.00,,,0.00,Wunderground v.1.15,2015-09-02 11:24:00,
2015-09-02 04:34:00,61.1,56.6,29.92,SSW,206,5.0,6.0,85,0.00,,,0.00,Wunderground v.1.15,2015-09-02 11:34:00,
2015-09-02 04:44:00,61.1,56.9,29.92,South,186,5.0,6.0,86,0.00,,,0.00,Wunderground v.1.15,2015-09-02 11:44:00,
2015-09-02 04:49:00,61.1,56.9,29.92,South,189,6.0,8.0,86,0.00,,,0.00,Wunderground v.1.15,2015-09-02 11:49:00,
2015-09-02 04:59:00,61.2,56.7,29.92,SSW,203,6.0,6.0,85,0.00,,,0.00,Wunderground v.1.15,2015-09-02 11:59:00,
2015-09-02 05:09:00,61.3,56.8,29.92,SW,226,6.0,10.0,85,0.00,,,0.00,Wunderground v.1.15,2015-09-02 12:09:00,
2015-09-02 05:14:00,61.4,57.2,29.92,WSW,249,7.0,7.0,86,0.00,,,0.00,Wunderground v.1.15,2015-09-02 12:14:00,
2015-09-02 05:19:00,61.4,57.2,29.92,SSW,209,7.0,9.0,86,0.00,,,0.00,Wunderground v.1.15,2015-09-02 12:19:00,
2015-09-02 05:24:00,61.3,57.1,29.92,SSW,198,7.0,7.0,86,0.00,,,0.00,Wunderground v.1.15,2015-09-02 12:24:00,
2015-09-02 05:39:00,61.2,56.7,29.92,SSW,192,5.0,6.0,85,0.00,,,0.00,Wunderground v.1.15,2015-09-02 12:39:00,
2015-09-02 05:44:00,61.2,57.0,29.92,SW,223,5.0,5.0,86,0.00,,,0.00,Wunderground v.1.15,2015-09-02 12:44:00,
2015-09-02 05:49:00,61.2,56.7,29.92,SW,228,5.0,5.0,85,0.00,,,0.00,Wunderground v.1.15,2015-09-02 12:49:00,
2015-09-02 05:54:00,61.2,56.7,29.92,SW,226,5.0,6.0,85,0.00,,,0.00,Wunderground v.1.15,2015-09-02 12:54:00,
2015-09-02 05:59:00,61.2,57.0,29.92,SW,217,5.0,6.0,86,0.00,,,0.00,Wunderground v.1.15,2015-09-02 12:59:00,
2015-09-02 06:09:00,61.3,57.1,29.92,SW,216,5.0,8.0,86,0.00,,,0.00,Wunderground v.1.15,2015-09-02 13:09:00,
2015-09-02 06:14:00,61.3,57.1,29.92,SSW,198,5.0,5.0,86,0.00,,,0.00,Wunderground v.1.15,2015-09-02 13:14:00,
2015-09-02 06:19:00,61.3,56.8,29.92,SW,214,5.0,5.0,85,0.00,,,0.00,Wunderground v.1.15,2015-09-02 13:19:00,
2015-09-02 06:24:00,61.3,56.8,29.92,SSW,200,5.0,5.0,85,0.00,,,0.00,Wunderground v.1.15,2015-09-02 13:24:00,
2015-09-02 06:29:00,61.4,56.8,29.92,WSW,241,4.0,5.0,85,0.00,,,0.00,Wunderground v.1.15,2015-09-02 13:29:00,
2015-09-02 06:34:00,61.4,56.8,29.92,SSW,203,5.0,7.0,85,0.00,,,0.00,Wunderground v.1.15,2015-09-02 13:34:00,
2015-09-02 06:44:00,61.7,57.1,29.92,South,179,5.0,6.0,85,0.00,,,0.00,Wunderground v.1.15,2015-09-02 13:44:00,
2015-09-02 06:49:00,61.8,57.2,29.93,SSW,208,5.0,6.0,85,0.00,,,0.00,Wunderground v.1.15,2015-09-02 13:49:00,
2015-09-02 06:54:00,61.8,57.2,29.93,SW,214,6.0,7.0,85,0.00,,,0.00,Wunderground v.1.15,2015-09-02 13:54:00,
2015-09-02 06:59:00,61.8,56.9,29.93,SSW,209,6.0,7.0,84,0.00,,,0.00,Wunderground v.1.15,2015-09-02 13:59:00,
2015-09-02 07:04:00,61.8,56.9,29.93,SSW,205,6.0,6.0,84,0.00,,,0.00,Wunderground v.1.15,2015-09-02 14:04:00,
2015-09-02 07:09:00,61.8,57.2,29.93,SW,215,5.0,6.0,85,0.00,,,0.00,Wunderground v.1.15,2015-09-02 14:09:00,
2015-09-02 07:14:00,61.8,57.2,29.93,SSW,200,6.0,6.0,85,0.00,,,0.00,Wunderground v.1.15,2015-09-02 14:14:00,
2015-09-02 07:19:00,61.8,57.2,29.93,South,186,7.0,7.0,85,0.00,,,0.00,Wunderground v.1.15,2015-09-02 14:19:00,
2015-09-02 07:24:00,61.8,57.2,29.93,SSW,193,6.0,6.0,85,0.00,,,0.00,Wunderground v.1.15,2015-09-02 14:24:00,
2015-09-02 07:29:00,61.9,57.3,29.93,SSW,210,5.0,6.0,85,0.00,,,0.00,Wunderground v.1.15,2015-09-02 14:29:00,
2015-09-02 07:34:00,62.0,57.4,29.94,SSW,209,6.0,7.0,85,0.00,,,0.00,Wunderground v.1.15,2015-09-02 14:34:00,
2015-09-02 07:39:00,62.1,57.5,29.94,South,188,6.0,8.0,85,0.00,,,0.00,Wunderground v.1.15,2015-09-02 14:39:00,
2015-09-02 07:44:00,62.2,57.6,29.94,South,183,6.0,7.0,85,0.00,,,0.00,Wunderground v.1.15,2015-09-02 14:44:00,
2015-09-02 07:54:00,62.4,57.8,29.94,South,188,7.0,8.0,85,0.00,,,0.00,Wunderground v.1.15,2015-09-02 14:54:00,
2015-09-02 07:59:00,62.4,57.8,29.94,South,190,7.0,8.0,85,0.00,,,0.00,Wunderground v.1.15,2015-09-02 14:59:00,
2015-09-02 08:04:00,62.5,57.9,29.94,SSW,193,7.0,7.0,85,0.00,,,0.00,Wunderground v.1.15,2015-09-02 15:04:00,
2015-09-02 08:09:00,62.6,58.0,29.94,SSW,200,7.0,7.0,85,0.00,,,0.00,Wunderground v.1.15,2015-09-02 15:09:00,
2015-09-02 08:14:00,62.6,57.7,29.94,SW,219,7.0,7.0,84,0.00,,,0.00,Wunderground v.1.15,2015-09-02 15:14:00,
2015-09-02 08:19:00,62.7,57.8,29.94,South,184,7.0,8.0,84,0.00,,,0.00,Wunderground v.1.15,2015-09-02 15:19:00,
2015-09-02 08:29:00,62.7,57.8,29.94,SW,214,8.0,10.0,84,0.00,,,0.00,Wunderground v.1.15,2015-09-02 15:29:00,
2015-09-02 08:34:00,62.7,57.8,29.94,SSW,206,7.0,8.0,84,0.00,,,0.00,Wunderground v.1.15,2015-09-02 15:34:00,
2015-09-02 08:39:00,62.8,57.9,29.94,South,184,7.0,12.0,84,0.00,,,0.00,Wunderground v.1.15,2015-09-02 15:39:00,
2015-09-02 08:44:00,62.9,58.0,29.95,SSW,198,8.0,9.0,84,0.00,,,0.00,Wunderground v.1.15,2015-09-02 15:44:00,
2015-09-02 08:49:00,63.0,57.8,29.94,SW,233,8.0,9.0,83,0.00,,,0.00,Wunderground v.1.15,2015-09-02 15:49:00,
2015-09-02 08:59:00,63.2,57.9,29.94,SSW,207,7.0,12.0,83,0.00,,,0.00,Wunderground v.1.15,2015-09-02 15:59:00,
2015-09-02 09:04:00,63.3,58.0,29.95,SSW,203,8.0,8.0,83,0.00,,,0.00,Wunderground v.1.15,2015-09-02 16:04:00,
2015-09-02 09:09:00,63.4,58.1,29.95,SSW,205,7.0,8.0,83,0.00,,,0.00,Wunderground v.1.15,2015-09-02 16:09:00,
2015-09-02 09:14:00,63.5,57.9,29.95,SSW,199,6.0,6.0,82,0.00,,,0.00,Wunderground v.1.15,2015-09-02 16:14:00,
2015-09-02 09:24:00,63.9,58.0,29.95,SSW,211,7.0,9.0,81,0.00,,,0.00,Wunderground v.1.15,2015-09-02 16:24:00,
2015-09-02 09:29:00,64.2,58.2,29.95,SSW,199,7.0,9.0,81,0.00,,,0.00,Wunderground v.1.15,2015-09-02 16:29:00,
2015-09-02 09:39:00,64.3,58.3,29.95,South,190,7.0,7.0,81,0.00,,,0.00,Wunderground v.1.15,2015-09-02 16:39:00,
2015-09-02 09:49:00,64.6,58.3,29.95,SSW,205,8.0,8.0,80,0.00,,,0.00,Wunderground v.1.15,2015-09-02 16:49:00,
2015-09-02 09:54:00,64.9,58.6,29.95,SSW,195,7.0,8.0,80,0.00,,,0.00,Wunderground v.1.15,2015-09-02 16:54:00,
2015-09-02 09:59:00,65.2,58.9,29.95,South,191,7.0,8.0,80,0.00,,,0.00,Wunderground v.1.15,2015-09-02 16:59:00,
2015-09-02 10:09:00,65.2,58.9,29.95,South,186,9.0,12.0,80,0.00,,,0.00,Wunderground v.1.15,2015-09-02 17:09:00,
2015-09-02 10:14:00,65.5,58.8,29.95,SSW,201,8.0,9.0,79,0.00,,,0.00,Wunderground v.1.15,2015-09-02 17:14:00,
2015-09-02 10:24:00,65.7,58.7,29.96,SW,214,8.0,8.0,78,0.00,,,0.00,Wunderground v.1.15,2015-09-02 17:24:00,
2015-09-02 10:29:00,66.0,58.6,29.96,SW,224,8.0,9.0,77,0.00,,,0.00,Wunderground v.1.15,2015-09-02 17:29:00,
2015-09-02 10:34:00,66.2,58.8,29.96,SW,222,8.0,8.0,77,0.00,,,0.00,Wunderground v.1.15,2015-09-02 17:34:00,
2015-09-02 10:39:00,66.5,58.7,29.96,SW,215,7.0,8.0,76,0.00,,,0.00,Wunderground v.1.15,2015-09-02 17:39:00,
2015-09-02 10:44:00,66.6,58.4,29.96,SSW,210,7.0,7.0,75,0.00,,,0.00,Wunderground v.1.15,2015-09-02 17:44:00,
2015-09-02 10:54:00,67.1,58.9,29.96,SSW,213,8.0,8.0,75,0.00,,,0.00,Wunderground v.1.15,2015-09-02 17:54:00,
2015-09-02 10:59:00,67.0,58.8,29.96,South,180,8.0,8.0,75,0.00,,,0.00,Wunderground v.1.15,2015-09-02 17:59:00,
2015-09-02 11:04:00,67.4,58.4,29.96,South,191,8.0,8.0,73,0.00,,,0.00,Wunderground v.1.15,2015-09-02 18:04:00,
2015-09-02 11:09:00,67.9,58.9,29.95,SSW,193,8.0,10.0,73,0.00,,,0.00,Wunderground v.1.15,2015-09-02 18:09:00,
2015-09-02 11:14:00,68.3,58.9,29.95,SSW,203,7.0,11.0,72,0.00,,,0.00,Wunderground v.1.15,2015-09-02 18:14:00,
2015-09-02 11:19:00,68.7,59.3,29.96,SSW,203,7.0,11.0,72,0.00,,,0.00,Wunderground v.1.15,2015-09-02 18:19:00,
2015-09-02 11:29:00,68.9,59.9,29.95,South,173,8.0,10.0,73,0.00,,,0.00,Wunderground v.1.15,2015-09-02 18:29:00,
2015-09-02 11:39:00,69.4,59.6,29.95,SW,235,7.0,12.0,71,0.00,,,0.00,Wunderground v.1.15,2015-09-02 18:39:00,
2015-09-02 11:44:00,70.0,59.8,29.95,SSW,200,7.0,7.0,70,0.00,,,0.00,Wunderground v.1.15,2015-09-02 18:44:00,
2015-09-02 11:49:00,70.4,59.7,29.95,SW,214,7.0,8.0,69,0.00,,,0.00,Wunderground v.1.15,2015-09-02 18:49:00,
2015-09-02 11:54:00,70.6,59.9,29.95,SSW,203,7.0,7.0,69,0.00,,,0.00,Wunderground v.1.15,2015-09-02 18:54:00,
2015-09-02 12:04:00,71.9,59.9,29.95,SSW,205,6.0,8.0,66,0.00,,,0.00,Wunderground v.1.15,2015-09-02 19:04:00,
2015-09-02 12:09:00,72.3,59.9,29.95,SW,218,7.0,8.0,65,0.00,,,0.00,Wunderground v.1.15,2015-09-02 19:09:00,
2015-09-02 12:14:00,72.3,59.9,29.95,SSW,212,7.0,7.0,65,0.00,,,0.00,Wunderground v.1.15,2015-09-02 19:14:00,
2015-09-02 12:19:00,72.6,60.2,29.95,South,174,6.0,10.0,65,0.00,,,0.00,Wunderground v.1.15,2015-09-02 19:19:00,
2015-09-02 12:24:00,73.3,60.4,29.95,SSW,202,6.0,8.0,64,0.00,,,0.00,Wunderground v.1.15,2015-09-02 19:24:00,
2015-09-02 12:29:00,73.7,59.4,29.95,South,179,7.0,8.0,61,0.00,,,0.00,Wunderground v.1.15,2015-09-02 19:29:00,
2015-09-02 12:39:00,73.5,59.7,29.95,West,262,6.0,7.0,62,0.00,,,0.00,Wunderground v.1.15,2015-09-02 19:39:00,
2015-09-02 12:44:00,73.3,59.9,29.94,SW,232,7.0,7.0,63,0.00,,,0.00,Wunderground v.1.15,2015-09-02 19:44:00,
2015-09-02 12:49:00,72.8,59.5,29.94,SW,218,6.0,7.0,63,0.00,,,0.00,Wunderground v.1.15,2015-09-02 19:49:00,
2015-09-02 12:54:00,72.8,59.9,29.94,SSW,195,7.0,7.0,64,0.00,,,0.00,Wunderground v.1.15,2015-09-02 19:54:00,
2015-09-02 12:59:00,73.5,60.1,29.95,SW,229,7.0,7.0,63,0.00,,,0.00,Wunderground v.1.15,2015-09-02 19:59:00,